Year,Month,Day,Hour,Minute,Value (Times are PST for temperature in C)
2010,07,28,11,07,19.50
2010,07,28,11,08,19.50
2010,07,28,11,09,19.40
2010,07,28,11,10,19.40
2010,07,28,11,11,19.40
2010,07,28,11,12,19.40
2010,07,28,11,13,19.40
2010,07,28,11,14,19.50
2010,07,28,11,15,19.60
2010,07,28,11,16,19.70
2010,07,28,11,17,19.70
2010,07,28,11,18,19.80
2010,07,28,11,19,19.80
2010,07,28,11,20,19.80
2010,07,28,11,21,19.70
2010,07,28,11,22,19.70
2010,07,28,11,23,19.70
2010,07,28,11,24,19.60
2010,07,28,11,25,19.70
2010,07,28,11,26,19.70
2010,07,28,11,27,19.70
2010,07,28,11,28,19.70
2010,07,28,11,29,19.70
2010,07,28,11,30,19.70
2010,07,28,11,31,19.70
2010,07,28,11,32,19.70
2010,07,28,11,33,19.80
2010,07,28,11,34,19.80
2010,07,28,11,35,19.80
2010,07,28,11,36,19.80
2010,07,28,11,37,19.90
2010,07,28,11,38,20.00
2010,07,28,11,39,20.10
2010,07,28,11,40,20.20
2010,07,28,11,41,20.30
2010,07,28,11,42,20.30
2010,07,28,11,43,20.30
2010,07,28,11,44,20.40
2010,07,28,11,45,20.50
2010,07,28,11,46,20.60
2010,07,28,11,47,20.80
2010,07,28,11,48,20.90
2010,07,28,11,49,21.00
2010,07,28,11,50,21.00
2010,07,28,11,51,21.10
2010,07,28,11,52,21.20
2010,07,28,11,53,21.20
2010,07,28,11,54,21.20
2010,07,28,11,55,21.20
2010,07,28,11,56,21.10
2010,07,28,11,57,21.10
2010,07,28,11,58,21.10
2010,07,28,11,59,21.10
2010,07,28,12,00,21.20
2010,07,28,12,01,21.10
2010,07,28,12,02,20.90
2010,07,28,12,03,20.80
2010,07,28,12,04,20.70
2010,07,28,12,05,20.70
2010,07,28,12,06,20.80
2010,07,28,12,07,20.90
2010,07,28,12,08,21.00
2010,07,28,12,09,21.10
2010,07,28,12,10,21.20
2010,07,28,12,11,21.30
2010,07,28,12,12,21.30
2010,07,28,12,13,21.40
2010,07,28,12,14,21.40
2010,07,28,12,15,21.50
2010,07,28,12,16,21.60
2010,07,28,12,17,21.70
2010,07,28,12,18,21.70
2010,07,28,12,19,21.80
2010,07,28,12,20,21.90
2010,07,28,12,21,21.90
2010,07,28,12,22,21.90
2010,07,28,12,23,21.90
2010,07,28,12,24,21.90
2010,07,28,12,25,22.00
2010,07,28,12,26,22.00
2010,07,28,12,27,22.00
2010,07,28,12,28,22.10
2010,07,28,12,29,22.00
2010,07,28,12,30,21.80
2010,07,28,12,31,21.80
2010,07,28,12,32,21.70
2010,07,28,12,33,21.70
2010,07,28,12,34,21.70
2010,07,28,12,35,21.80
2010,07,28,12,36,21.90
2010,07,28,12,37,22.10
2010,07,28,12,38,22.30
2010,07,28,12,39,22.40
2010,07,28,12,40,22.50
2010,07,28,12,41,22.50
2010,07,28,12,42,22.40
2010,07,28,12,43,22.40
2010,07,28,12,44,22.40
2010,07,28,12,45,22.40
2010,07,28,12,46,22.40
2010,07,28,12,47,22.40
2010,07,28,12,48,22.40
2010,07,28,12,49,22.40
2010,07,28,12,50,22.40
2010,07,28,12,51,22.40
2010,07,28,12,52,22.40
2010,07,28,12,53,22.20
2010,07,28,12,54,22.20
2010,07,28,12,55,22.20
2010,07,28,12,56,22.20
2010,07,28,12,57,22.20
2010,07,28,12,58,22.10
2010,07,28,12,59,22.00
2010,07,28,13,00,22.00
2010,07,28,13,01,22.00
2010,07,28,13,02,21.90
2010,07,28,13,03,21.90
2010,07,28,13,04,22.00
2010,07,28,13,05,22.00
2010,07,28,13,06,21.90
2010,07,28,13,07,21.80
2010,07,28,13,08,21.70
2010,07,28,13,09,21.60
2010,07,28,13,10,21.60
2010,07,28,13,11,21.50
2010,07,28,13,12,21.50
2010,07,28,13,13,21.50
2010,07,28,13,14,21.50
2010,07,28,13,15,21.50
2010,07,28,13,16,21.50
2010,07,28,13,17,21.60
2010,07,28,13,18,21.60
2010,07,28,13,19,21.70
2010,07,28,13,20,21.70
2010,07,28,13,21,21.80
2010,07,28,13,22,21.80
2010,07,28,13,23,21.90
2010,07,28,13,24,22.00
2010,07,28,13,25,22.00
2010,07,28,13,26,22.00
2010,07,28,13,27,21.90
2010,07,28,13,28,21.90
2010,07,28,13,29,21.70
2010,07,28,13,30,21.70
2010,07,28,13,31,21.70
2010,07,28,13,32,21.80
2010,07,28,13,33,21.90
2010,07,28,13,34,22.10
2010,07,28,13,35,22.20
2010,07,28,13,36,22.30
2010,07,28,13,37,22.30
2010,07,28,13,38,22.40
2010,07,28,13,39,22.30
2010,07,28,13,40,22.30
2010,07,28,13,41,22.30
2010,07,28,13,42,22.40
2010,07,28,13,43,22.50
2010,07,28,13,44,22.60
2010,07,28,13,45,22.60
2010,07,28,13,46,22.70
2010,07,28,13,47,22.70
2010,07,28,13,48,22.70
2010,07,28,13,49,22.80
2010,07,28,13,50,22.80
2010,07,28,13,51,22.80
2010,07,28,13,52,22.90
2010,07,28,13,53,22.90
2010,07,28,13,54,23.00
2010,07,28,13,55,22.90
2010,07,28,13,56,22.90
2010,07,28,13,57,22.90
2010,07,28,13,58,22.90
2010,07,28,13,59,22.90
2010,07,28,14,00,23.00
2010,07,28,14,01,22.90
2010,07,28,14,02,22.80
2010,07,28,14,03,22.80
2010,07,28,14,04,22.70
2010,07,28,14,05,22.70
2010,07,28,14,06,22.80
2010,07,28,14,07,22.80
2010,07,28,14,08,22.80
2010,07,28,14,09,22.80
2010,07,28,14,10,22.80
2010,07,28,14,11,22.80
2010,07,28,14,12,22.90
2010,07,28,14,13,22.90
2010,07,28,14,14,23.00
2010,07,28,14,15,23.00
2010,07,28,14,16,23.10
2010,07,28,14,17,23.20
2010,07,28,14,18,23.30
2010,07,28,14,19,23.30
2010,07,28,14,20,23.40
2010,07,28,14,21,23.40
2010,07,28,14,22,23.40
2010,07,28,14,23,23.50
2010,07,28,14,24,23.60
2010,07,28,14,25,23.60
2010,07,28,14,26,23.60
2010,07,28,14,27,23.60
2010,07,28,14,28,23.50
2010,07,28,14,29,23.40
2010,07,28,14,30,23.40
2010,07,28,14,31,23.30
2010,07,28,14,32,23.40
2010,07,28,14,33,23.40
2010,07,28,14,34,23.50
2010,07,28,14,35,23.50
2010,07,28,14,36,23.50
2010,07,28,14,37,23.50
2010,07,28,14,38,23.60
2010,07,28,14,39,23.60
2010,07,28,14,40,23.70
2010,07,28,14,41,23.80
2010,07,28,14,42,23.90
2010,07,28,14,43,23.90
2010,07,28,14,44,23.90
2010,07,28,14,45,23.90
2010,07,28,14,46,24.00
2010,07,28,14,47,24.10
2010,07,28,14,48,24.10
2010,07,28,14,49,24.10
2010,07,28,14,50,24.10
2010,07,28,14,51,24.10
2010,07,28,14,52,24.20
2010,07,28,14,53,24.30
2010,07,28,14,54,24.40
2010,07,28,14,55,24.30
2010,07,28,14,56,24.30
2010,07,28,14,57,24.20
2010,07,28,14,58,24.20
2010,07,28,14,59,24.20
2010,07,28,15,00,24.20
2010,07,28,15,01,24.20
2010,07,28,15,02,24.20
2010,07,28,15,03,24.20
2010,07,28,15,04,24.20
2010,07,28,15,05,24.20
2010,07,28,15,06,24.10
2010,07,28,15,07,24.10
2010,07,28,15,08,24.10
2010,07,28,15,09,24.10
2010,07,28,15,10,24.20
2010,07,28,15,11,24.20
2010,07,28,15,12,24.30
2010,07,28,15,13,24.30
2010,07,28,15,14,24.30
2010,07,28,15,15,24.30
2010,07,28,15,16,24.40
2010,07,28,15,17,24.30
2010,07,28,15,18,24.20
2010,07,28,15,19,24.10
2010,07,28,15,20,24.20
2010,07,28,15,21,24.20
2010,07,28,15,22,24.30
2010,07,28,15,23,24.40
2010,07,28,15,24,24.50
2010,07,28,15,25,24.60
2010,07,28,15,26,24.70
2010,07,28,15,27,24.80
2010,07,28,15,28,24.80
2010,07,28,15,29,24.70
2010,07,28,15,30,24.70
2010,07,28,15,31,24.70
2010,07,28,15,32,24.70
2010,07,28,15,33,24.80
2010,07,28,15,34,24.90
2010,07,28,15,35,24.90
2010,07,28,15,36,24.90
2010,07,28,15,37,24.90
2010,07,28,15,38,24.90
2010,07,28,15,39,24.90
2010,07,28,15,40,24.90
2010,07,28,15,41,24.90
2010,07,28,15,42,25.00
2010,07,28,15,43,25.10
2010,07,28,15,44,25.20
2010,07,28,15,45,25.20
2010,07,28,15,46,25.20
2010,07,28,15,47,25.10
2010,07,28,15,48,25.10
2010,07,28,15,49,25.10
2010,07,28,15,50,25.00
2010,07,28,15,51,25.00
2010,07,28,15,52,25.10
2010,07,28,15,53,25.10
2010,07,28,15,54,25.10
2010,07,28,15,55,25.20
2010,07,28,15,56,25.30
2010,07,28,15,57,25.30
2010,07,28,15,58,25.20
2010,07,28,15,59,25.20
2010,07,28,16,00,25.20
2010,07,28,16,01,25.20
2010,07,28,16,02,25.10
2010,07,28,16,03,25.10
2010,07,28,16,04,25.20
2010,07,28,16,05,25.20
2010,07,28,16,06,25.20
2010,07,28,16,07,25.20
2010,07,28,16,08,25.20
2010,07,28,16,09,25.20
2010,07,28,16,10,25.20
2010,07,28,16,11,25.30
2010,07,28,16,12,25.30
2010,07,28,16,13,25.30
2010,07,28,16,14,25.40
2010,07,28,16,15,25.40
2010,07,28,16,16,25.50
2010,07,28,16,17,25.70
2010,07,28,16,18,25.90
2010,07,28,16,19,25.90
2010,07,28,16,20,25.90
2010,07,28,16,21,26.00
2010,07,28,16,22,26.00
2010,07,28,16,23,26.10
2010,07,28,16,24,26.10
2010,07,28,16,25,26.10
2010,07,28,16,26,26.10
2010,07,28,16,27,26.20
2010,07,28,16,28,26.30
2010,07,28,16,29,26.40
2010,07,28,16,30,26.50
2010,07,28,16,31,26.50
2010,07,28,16,32,26.60
2010,07,28,16,33,26.60
2010,07,28,16,34,26.80
2010,07,28,16,35,26.80
2010,07,28,16,36,26.70
2010,07,28,16,37,26.60
2010,07,28,16,38,26.60
2010,07,28,16,39,26.60
2010,07,28,16,40,26.60
2010,07,28,16,41,26.60
2010,07,28,16,42,26.70
2010,07,28,16,43,26.80
2010,07,28,16,44,26.80
2010,07,28,16,45,26.80
2010,07,28,16,46,26.80
2010,07,28,16,47,26.60
2010,07,28,16,48,26.50
2010,07,28,16,49,26.50
2010,07,28,16,50,26.50
2010,07,28,16,51,26.50
2010,07,28,16,52,26.50
2010,07,28,16,53,26.50
2010,07,28,16,54,26.50
2010,07,28,16,55,26.50
2010,07,28,16,56,26.40
2010,07,28,16,57,26.40
2010,07,28,16,58,26.30
2010,07,28,16,59,26.30
2010,07,28,17,00,26.30
2010,07,28,17,01,26.30
2010,07,28,17,02,26.30
2010,07,28,17,03,26.30
2010,07,28,17,04,26.30
2010,07,28,17,05,26.40
2010,07,28,17,06,26.40
2010,07,28,17,07,26.40
2010,07,28,17,08,26.30
2010,07,28,17,09,26.20
2010,07,28,17,10,26.00
2010,07,28,17,11,26.00
2010,07,28,17,12,25.90
2010,07,28,17,13,25.90
2010,07,28,17,14,26.00
2010,07,28,17,15,26.00
2010,07,28,17,16,25.90
2010,07,28,17,17,25.90
2010,07,28,17,18,25.90
2010,07,28,17,19,25.80
2010,07,28,17,20,25.70
2010,07,28,17,21,25.60
2010,07,28,17,22,25.60
2010,07,28,17,23,25.50
2010,07,28,17,24,25.40
2010,07,28,17,25,25.40
2010,07,28,17,26,25.50
2010,07,28,17,27,25.50
2010,07,28,17,28,25.50
2010,07,28,17,29,25.60
2010,07,28,17,30,25.60
2010,07,28,17,31,25.60
2010,07,28,17,32,25.70
2010,07,28,17,33,25.80
2010,07,28,17,34,25.80
2010,07,28,17,35,25.90
2010,07,28,17,36,25.80
2010,07,28,17,37,25.70
2010,07,28,17,38,25.60
2010,07,28,17,39,25.70
2010,07,28,17,40,25.80
2010,07,28,17,41,25.90
2010,07,28,17,42,25.90
2010,07,28,17,43,25.90
2010,07,28,17,44,26.00
2010,07,28,17,45,26.00
2010,07,28,17,46,26.00
2010,07,28,17,47,26.00
2010,07,28,17,48,25.90
2010,07,28,17,49,25.90
2010,07,28,17,50,26.00
2010,07,28,17,51,26.00
2010,07,28,17,52,25.90
2010,07,28,17,53,25.90
2010,07,28,17,54,25.90
2010,07,28,17,55,25.90
2010,07,28,17,56,25.90
2010,07,28,17,57,25.90
2010,07,28,17,58,25.80
2010,07,28,17,59,25.70
2010,07,28,18,00,25.60
2010,07,28,18,01,25.60
2010,07,28,18,02,25.70
2010,07,28,18,03,25.80
2010,07,28,18,04,25.90
2010,07,28,18,05,25.90
2010,07,28,18,06,26.00
2010,07,28,18,07,26.00
2010,07,28,18,08,26.10
2010,07,28,18,09,26.10
2010,07,28,18,10,25.90
2010,07,28,18,11,25.90
2010,07,28,18,12,25.70
2010,07,28,18,13,25.60
2010,07,28,18,14,25.60
2010,07,28,18,15,25.60
2010,07,28,18,16,25.60
2010,07,28,18,17,25.60
2010,07,28,18,18,25.70
2010,07,28,18,19,25.70
2010,07,28,18,20,25.70
2010,07,28,18,21,25.70
2010,07,28,18,22,25.80
2010,07,28,18,23,25.90
2010,07,28,18,24,25.80
2010,07,28,18,25,25.80
2010,07,28,18,26,25.70
2010,07,28,18,27,25.70
2010,07,28,18,28,25.70
2010,07,28,18,29,25.80
2010,07,28,18,30,25.70
2010,07,28,18,31,25.60
2010,07,28,18,32,25.50
2010,07,28,18,33,25.40
2010,07,28,18,34,25.30
2010,07,28,18,35,25.20
2010,07,28,18,36,25.10
2010,07,28,18,37,25.00
2010,07,28,18,38,24.90
2010,07,28,18,39,24.70
2010,07,28,18,40,24.60
2010,07,28,18,41,24.60
2010,07,28,18,42,24.50
2010,07,28,18,43,24.40
2010,07,28,18,44,24.30
2010,07,28,18,45,24.30
2010,07,28,18,46,24.30
2010,07,28,18,47,24.20
2010,07,28,18,48,24.10
2010,07,28,18,49,24.00
2010,07,28,18,50,23.90
2010,07,28,18,51,23.90
2010,07,28,18,52,24.00
2010,07,28,18,53,24.10
2010,07,28,18,54,24.10
2010,07,28,18,55,24.10
2010,07,28,18,56,24.20
2010,07,28,18,57,24.30
2010,07,28,18,58,24.40
2010,07,28,18,59,24.50
2010,07,28,19,00,24.50
2010,07,28,19,01,24.60
2010,07,28,19,02,24.70
2010,07,28,19,03,24.80
2010,07,28,19,04,24.80
2010,07,28,19,05,24.90
2010,07,28,19,06,24.90
2010,07,28,19,07,24.90
2010,07,28,19,08,25.00
2010,07,28,19,09,25.00
2010,07,28,19,10,25.10
2010,07,28,19,11,25.10
2010,07,28,19,12,25.10
2010,07,28,19,13,25.10
2010,07,28,19,14,25.00
2010,07,28,19,15,24.90
2010,07,28,19,16,24.80
2010,07,28,19,17,24.80
2010,07,28,19,18,24.80
2010,07,28,19,19,24.70
2010,07,28,19,20,24.70
2010,07,28,19,21,24.60
2010,07,28,19,22,24.60
2010,07,28,19,23,24.50
2010,07,28,19,24,24.40
2010,07,28,19,25,24.30
2010,07,28,19,26,24.00
2010,07,28,19,27,23.80
2010,07,28,19,28,23.70
2010,07,28,19,29,23.50
2010,07,28,19,30,23.40
2010,07,28,19,31,23.30
2010,07,28,19,32,23.30
2010,07,28,19,33,23.20
2010,07,28,19,34,23.10
2010,07,28,19,35,23.10
2010,07,28,19,36,23.00
2010,07,28,19,37,23.00
2010,07,28,19,38,22.80
2010,07,28,19,39,22.80
2010,07,28,19,40,22.70
2010,07,28,19,41,22.70
2010,07,28,19,42,22.60
2010,07,28,19,43,22.60
2010,07,28,19,44,22.60
2010,07,28,19,45,22.60
2010,07,28,19,46,22.60
2010,07,28,19,47,22.60
2010,07,28,19,48,22.50
2010,07,28,19,49,22.40
2010,07,28,19,50,22.40
2010,07,28,19,51,22.30
2010,07,28,19,52,22.30
2010,07,28,19,53,22.20
2010,07,28,19,54,22.20
2010,07,28,19,55,22.20
2010,07,28,19,56,22.10
2010,07,28,19,57,22.10
2010,07,28,19,58,22.00
2010,07,28,19,59,22.00
2010,07,28,20,00,21.90
2010,07,28,20,01,21.80
2010,07,28,20,02,21.80
2010,07,28,20,03,21.80
2010,07,28,20,04,21.70
2010,07,28,20,05,21.70
2010,07,28,20,06,21.60
2010,07,28,20,07,21.60
2010,07,28,20,08,21.60
2010,07,28,20,09,21.50
2010,07,28,20,10,21.50
2010,07,28,20,11,21.40
2010,07,28,20,12,21.40
2010,07,28,20,13,21.40
2010,07,28,20,14,21.40
2010,07,28,20,15,21.40
2010,07,28,20,16,21.30
2010,07,28,20,17,21.30
2010,07,28,20,18,21.30
2010,07,28,20,19,21.30
2010,07,28,20,20,21.20
2010,07,28,20,21,21.20
2010,07,28,20,22,21.10
2010,07,28,20,23,21.00
2010,07,28,20,24,20.90
2010,07,28,20,25,20.90
2010,07,28,20,26,20.80
2010,07,28,20,27,20.80
2010,07,28,20,28,20.70
2010,07,28,20,29,20.70
2010,07,28,20,30,20.60
2010,07,28,20,31,20.50
2010,07,28,20,32,20.50
2010,07,28,20,33,20.40
2010,07,28,20,34,20.40
2010,07,28,20,35,20.30
2010,07,28,20,36,20.30
2010,07,28,20,37,20.20
2010,07,28,20,38,20.10
2010,07,28,20,39,20.00
2010,07,28,20,40,20.00
2010,07,28,20,41,19.90
2010,07,28,20,42,19.70
2010,07,28,20,43,19.70
2010,07,28,20,44,19.60
2010,07,28,20,45,19.50
2010,07,28,20,46,19.40
2010,07,28,20,47,19.30
2010,07,28,20,48,19.30
2010,07,28,20,49,19.20
2010,07,28,20,50,19.10
2010,07,28,20,51,19.10
2010,07,28,20,52,19.00
2010,07,28,20,53,19.00
2010,07,28,20,54,18.90
2010,07,28,20,55,18.90
2010,07,28,20,56,18.90
2010,07,28,20,57,18.80
2010,07,28,20,58,18.80
2010,07,28,20,59,18.80
2010,07,28,21,00,18.80
2010,07,28,21,01,18.70
2010,07,28,21,02,18.70
2010,07,28,21,03,18.70
2010,07,28,21,04,18.70
2010,07,28,21,05,18.60
2010,07,28,21,06,18.60
2010,07,28,21,07,18.50
2010,07,28,21,08,18.50
2010,07,28,21,09,18.40
2010,07,28,21,10,18.40
2010,07,28,21,11,18.40
2010,07,28,21,12,18.40
2010,07,28,21,13,18.30
2010,07,28,21,14,18.30
2010,07,28,21,15,18.30
2010,07,28,21,16,18.30
2010,07,28,21,17,18.20
2010,07,28,21,18,18.20
2010,07,28,21,19,18.20
2010,07,28,21,20,18.20
2010,07,28,21,21,18.10
2010,07,28,21,22,18.10
2010,07,28,21,23,18.10
2010,07,28,21,24,18.00
2010,07,28,21,25,18.00
2010,07,28,21,26,17.90
2010,07,28,21,27,17.90
2010,07,28,21,28,17.90
2010,07,28,21,29,17.80
2010,07,28,21,30,17.80
2010,07,28,21,31,17.80
2010,07,28,21,32,17.70
2010,07,28,21,33,17.70
2010,07,28,21,34,17.60
2010,07,28,21,35,17.60
2010,07,28,21,36,17.60
2010,07,28,21,37,17.60
2010,07,28,21,38,17.60
2010,07,28,21,39,17.60
2010,07,28,21,40,17.60
2010,07,28,21,41,17.60
2010,07,28,21,42,17.60
2010,07,28,21,43,17.60
2010,07,28,21,44,17.60
